Regional Weather Roundup
Issued by NWS

Home | Current Version | Previous Version | Graphics & Text | Print | Product List | Glossary On
Versions: 1 2 3 4 5 6 7 8 9 10 11 12 13 14 15 16 17 18 19 20 21 22 23 24 25 26 27 28 29 30 31 32 33 34 35 36 37 38 39 40 41 42 43 44 45 46 47 48 49 50
000
ASUS43 KMKX 140911
RWRWI

WISCONSIN REGIONAL WEATHER ROUNDUP
NATIONAL WEATHER SERVICE MILWAUKEE/SULLIVAN WI
400 AM CDT MON JUL 14 2014

NOTE: "FAIR" INDICATES FEW OR NO CLOUDS BELOW 12,000 FEET WITH NO
SIGNIFICANT WEATHER AND/OR OBSTRUCTIONS TO VISIBILITY.

WIZ001-002-006>008-014>016-023>028-141000-
NORTHWEST WISCONSIN

CITY           SKY/WX    TMP DP  RH WIND       PRES   REMARKS
SUPERIOR ARPT  PTCLDY    50  49  96 SW6       29.82F
ASHLAND        CLOUDY    54  49  83 SW5       29.83F
HAYWARD        CLOUDY    54  53  97 SW3       29.85F
SIREN          CLOUDY    56  51  84 W3        29.87S
RICE LAKE      CLOUDY    56  50  81 CALM      29.88S
LADYSMITH      CLEAR     56  52  84 CALM      29.87S
EAU CLAIRE     CLOUDY    58  54  86 SW3       29.85S
MENOMONIE      SUNNY     58  52  81 W6        29.86S
NEW RICHMOND   PTCLDY    55  49  81 W5        29.88S
OSCEOLA        CLOUDY    57  50  77 CALM      29.91S
$$

WIZ003>005-009-010-017-018-141000-
NORTH CENTRAL WISCONSIN

CITY           SKY/WX    TMP DP  RH WIND       PRES   REMARKS
WOODRUFF       MOCLDY    56  48  75 CALM      29.84S
RHINELANDER    CLOUDY    54  52  93 W3        29.85R
EAGLE RIVER    CLOUDY    52  52  99 CALM      29.84R
LAND O LAKES   MOCLDY    46  46  97 CALM      29.84S
PHILLIPS       CLEAR     51  50  96 W3        29.84S
TOMAHAWK       CLOUDY    53  50  91 CALM      29.84F
MEDFORD        CLOUDY    54  51  92 W3        29.85S
MERRILL        CLOUDY    51  51  99 CALM      29.84S
$$

WIZ029-030-035-036-043>047-141000-
CENTRAL WISCONSIN

CITY           SKY/WX    TMP DP  RH WIND       PRES   REMARKS
WAUSAU         CLEAR     54  51  90 CALM      29.83S
MOSINEE        CLEAR     52  52 100 CALM      29.86S
MARSHFIELD     PTCLDY    53  50  89 SW5       29.85S
STEVENS POINT  CLEAR     51  50  95 CALM      29.85F
WAUPACA        CLEAR     54  51  90 CALM      29.85F
WAUTOMA        CLEAR     49  48  96 CALM      29.86F
WISC RAPIDS    CLEAR     51  50  96 CALM      29.86F FOG
CAMP DOUGLAS   CLEAR     50  50 100 CALM      29.86F FOG
$$

WIZ011>013-019>022-031-037>040-048>050-141000-
NORTHEAST WISCONSIN

CITY           SKY/WX    TMP DP  RH WIND       PRES   REMARKS
ANTIGO         PTCLDY    49  48  96 CALM      29.85S
STURGEON BAY   CLOUDY    59  50  72 W3        29.83S
GREEN BAY      CLEAR     57  52  83 CALM      29.84S
MANITOWOC      CLEAR     59  51  75 W6        29.84S
APPLETON       CLEAR     54  50  87 W7        29.85S
CLINTONVILLE   CLEAR     52  48  87 CALM      29.84S
OSHKOSH        MOCLDY    60  50  69 CALM      29.85S
$$

WIZ032>034-041-042-053>061-141000-
SOUTHWEST WISCONSIN

CITY           SKY/WX    TMP DP  RH WIND       PRES   REMARKS
LA CROSSE      CLEAR     61  57  87 S8        29.86F
SPARTA         CLEAR     49  48  97 CALM      29.87F
VIROQUA        FAIR      57  56  97 SW3       29.89F
BOSCOBEL       CLOUDY    59  56  89 CALM      29.88F
PRAIRIE DU CHI PTCLDY    60  58  94 CALM      29.88F
PLATTEVILLE    FAIR      62  58  88 CALM      29.90F
$$

WIZ056-057-062-063-064-067-068-141000-
SOUTH CENTRAL WISCONSIN

CITY           SKY/WX    TMP DP  RH WIND       PRES   REMARKS
BARABOO/DELLS  CLEAR     54  51  88 CALM      29.88R
LONE ROCK      CLEAR     58  53  84 CALM      29.88F
WATERTOWN      CLEAR     55  53  94 CALM      29.87S
MADISON        CLEAR     58  55  90 CALM      29.87F
MIDDLETON      FAIR      54  54 100 CALM      29.88F
MONROE         PTCLDY    63  55  77 SW5       29.89F
JANESVILLE     MOCLDY    61  57  88 CALM      29.88S
$$

WIZ051-052-058>065-066-070>072-141000-
SOUTHEAST WISCONSIN

CITY           SKY/WX    TMP DP  RH WIND       PRES   REMARKS
MILWAUKEE      CLEAR     60  52  74 CALM      29.87F
WAUKESHA       CLEAR     55  52  88 CALM      29.89F
MILWAUKEE/TIMM CLEAR     57  50  77 CALM      29.87F
RACINE         CLEAR     60  56  86 CALM      29.89F
BURLINGTON     CLEAR     54  54  99 S3        29.88S
KENOSHA        CLEAR     59  58  96 SW3       29.88F
FOND DU LAC    PTCLDY    58  52  80 SW7       29.86F
SHEBOYGAN      CLEAR     54  51  90 SW5       29.85F
WEST BEND      CLEAR     54  50  87 CALM      29.87S
JUNEAU         CLEAR     56  39  51 CALM      29.88F
$$

LSZ147-162-141000-
LAKE SUPERIOR

STATION/POSITION TIME  TEMP    WIND        PRES    WAVE
                       AIR SEA DIR/SP/G            HT/PER
                 (UTC) (F)     (DEG/KT/KT) (MB)    (FT/S)
W MID LAKE BUOY  0850   44 38  240/  8/ 10 1009.3R   1
PORT WING        0800   54     190/  5/  6 1010.5
SAXON HARBOR     0800           CALM  /  4 1010.2
$$

LMZ867-665-643>646-141000-
LAKE MICHIGAN

STATION/POSITION TIME  TEMP    WIND        PRES    WAVE
                       AIR SEA DIR/SP/G            HT/PER
                 (UTC) (F)     (DEG/KT/KT) (MB)    (FT/S)
N MID LAKE BUOY  0850   61 60  240/ 10/ 10 1008.9R   1
NORTHPORT PIER   0800   64     280/  5/  8 1009.8S
ALGOMA LAKESHORE 0705             CALM       N/A
KEWAUNEE LAKESHO 0800   64     250/  5/  8 1010.8F
SHEBOYGAN LAKESH 0900   64     240/  7/  9 1010.6F
PORT WASHINGTON  0800   62     270/  5/  6 1011.9
MILWAUKEE LAKESH 0800   66     220/  3/  4   N/A
S MID LAKE BUOY  0850   65 65  200/  2/  2 1011.5F   0
KENOSHA   LAKESH 0900   66     260/  7/  7   N/A
$$

TC  - TEMPERATURE IN CELSIUS
VSB - VISIBILITY IN STATUTE MILES
WCI - WIND CHILL INDEX
HX  - HEAT INDEX




USA.gov is the U.S. government's official web portal to all federal, state and local government web resources and services.